FW7918 Weather Reports


time (UTC)temp
C
wind
direction
speed
KPH
gust
KPH
rain 1hr
cm
rain 24hr
cm
rain mn
cm
humidity
%
barometer
mb
20260506195939 24 98 0.0 0.0 0.00 0.00 0.00 99 1008.4
20260506195436 24 102 0.0 0.0 0.00 0.00 0.00 99 1008.4
20260506194933 24 97 0.0 0.0 0.00 0.00 0.00 99 1008.3
20260506194430 24 96 0.0 0.0 0.00 0.00 0.00 99 1008.6
20260506193927 24 107 0.0 0.0 0.00 0.00 0.00 99 1008.5
20260506193424 24 114 0.0 0.0 0.00 0.00 0.00 99 1008.6
20260506192920 24 106 0.0 0.0 0.00 0.00 0.00 99 1008.8
20260506192417 24 107 0.0 0.0 0.00 0.00 0.00 99 1008.7
20260506191914 24 109 0.0 0.0 0.00 0.00 0.00 99 1008.6
20260506191410 24 93 0.0 0.0 0.00 0.00 0.00 99 1008.7
20260506190908 24 93 0.0 0.0 0.00 0.00 0.00 99 1008.7
20260506190404 24 93 0.0 0.0 0.00 0.00 0.00 99 1008.7
20260506185901 24 103 0.0 0.0 0.00 0.00 0.00 99 1008.7
20260506185358 25 98 0.0 0.0 0.00 0.00 0.00 99 1008.8
20260506184855 24 97 0.0 1.6 0.00 0.00 0.00 99 1008.9
20260506184352 24 98 0.0 0.0 0.00 0.00 0.00 99 1008.9
20260506183849 24 96 0.0 0.0 0.00 0.00 0.00 99 1009.1
20260506183344 24 82 0.0 0.0 0.00 0.00 0.00 99 1009.2
20260506182842 24 96 0.0 0.0 0.00 0.00 0.00 99 1009.2
20260506182339 24 57 1.6 1.6 0.00 0.00 0.00 99 1009.2
20260506181836 24 104 0.0 0.0 0.00 0.00 0.00 99 1009.5
20260506181335 25 100 0.0 0.0 0.00 0.00 0.00 99 1009.4
20260506180831 25 100 0.0 0.0 0.00 0.00 0.00 99 1009.3
20260506180327 25 102 0.0 0.0 0.00 0.00 0.00 99 1009.3
20260506175824 25 106 0.0 0.0 0.00 0.00 0.00 99 1009.7
20260506175321 25 109 0.0 1.6 0.00 0.00 0.00 99 1009.3
20260506174818 25 103 0.0 0.0 0.00 0.00 0.00 99 1009.2
20260506174315 25 86 0.0 1.6 0.00 0.00 0.00 99 1009.5
20260506173812 25 115 0.0 0.0 0.00 0.00 0.00 99 1009.3
20260506173309 25 133 1.6 1.6 0.00 0.00 0.00 99 1009.3
20260506172806 25 127 1.6 3.2 0.00 0.00 0.00 99 1009.4
20260506172306 25 83 1.6 1.6 0.00 0.00 0.00 99 1009.4
20260506171800 25 96 0.0 0.0 0.00 0.00 0.00 99 1009.5
20260506171257 25 109 0.0 0.0 0.00 0.00 0.00 99 1009.5
20260506170755 25 96 0.0 1.6 0.00 0.00 0.00 99 1009.6
20260506170251 25 94 0.0 1.6 0.00 0.00 0.00 99 1009.7
20260506165750 25 86 0.0 3.2 0.00 0.00 0.00 99 1010.2
20260506165247 25 90 0.0 0.0 0.00 0.00 0.00 99 1010.2
20260506164744 25 101 0.0 0.0 0.00 0.00 0.00 99 1010.3
20260506164240 25 90 0.0 0.0 0.00 0.00 0.00 99 1010.4
20260506163737 25 101 0.0 0.0 0.00 0.00 0.00 99 1010.1
20260506163232 25 105 0.0 0.0 0.00 0.00 0.00 99 1010.5
20260506162728 25 113 0.0 0.0 0.00 0.00 0.00 99 1010.7
20260506162226 25 107 0.0 0.0 0.00 0.00 0.00 99 1010.5
20260506161723 25 107 0.0 0.0 0.00 0.00 0.00 99 1010.6
20260506161220 25 107 0.0 0.0 0.00 0.00 0.00 99 1010.7
20260506160718 25 101 0.0 0.0 0.00 0.00 0.00 99 1010.8
20260506160214 25 100 0.0 0.0 0.00 0.00 0.00 99 1010.9
20260506155713 25 90 0.0 1.6 0.00 0.74 0.74 99 1011.0
20260506155210 25 106 0.0 0.0 0.00 0.74 0.74 99 1010.8
20260506153317 25 105 0.0 0.0 0.00 0.74 0.74 99 1010.9
20260506152814 25 102 0.0 0.0 0.00 0.74 0.74 99 1010.8
20260506152311 25 93 0.0 0.0 0.00 0.74 0.74 99 1010.8
20260506151810 25 94 0.0 1.6 0.00 0.74 0.74 99 1010.7
20260506151307 25 29 0.0 1.6 0.00 0.74 0.74 99 1011.0
20260506150803 25 102 0.0 0.0 0.00 0.74 0.74 99 1010.9
20260506150304 25 102 0.0 0.0 0.00 0.74 0.74 99 1010.9
20260506145757 25 103 0.0 0.0 0.00 0.74 0.74 99 1010.8
20260506145254 25 93 0.0 0.0 0.00 0.74 0.74 99 1011.0
20260506144751 25 92 0.0 1.6 0.00 0.74 0.74 99 1010.7
20260506144248 25 60 0.0 1.6 0.00 0.74 0.74 99 1010.7
20260506143746 25 64 0.0 1.6 0.00 0.74 0.74 99 1010.8
20260506143243 25 65 0.0 0.0 0.00 0.74 0.74 99 1010.8
20260506142741 25 92 0.0 1.6 0.00 0.74 0.74 99 1010.7
20260506142239 25 37 1.6 3.2 0.00 0.74 0.74 99 1010.5
20260506141738 25 5 1.6 4.8 0.00 0.74 0.74 99 1010.5
20260506141235 25 89 1.6 3.2 0.00 0.74 0.74 99 1010.3
20260506140732 25 354 3.2 4.8 0.05 0.74 0.74 99 1010.2
20260506140229 25 88 1.6 3.2 0.05 0.74 0.74 99 1010.2
20260506135726 25 75 0.0 1.6 0.05 0.71 0.71 99 1010.2
20260506135222 25 88 0.0 1.6 0.13 0.71 0.71 99 1010.0
20260506134719 25 98 0.0 1.6 0.13 0.71 0.71 99 1009.8
20260506134215 25 90 1.6 1.6 0.05 0.71 0.71 99 1010.1
20260506133713 25 90 0.0 0.0 0.00 0.69 0.69 99 1010.1
20260506133209 25 109 0.0 1.6 0.05 0.69 0.69 99 1010.1
20260506132706 25 75 0.0 3.2 0.05 0.69 0.69 99 1009.9
20260506132203 25 62 1.6 3.2 0.00 0.69 0.69 99 1009.8
20260506131701 25 61 3.2 3.2 0.00 0.69 0.69 99 1009.5
20260506131156 25 47 1.6 8.0 0.00 0.69 0.69 99 1009.6
20260506130654 25 27 6.4 11.3 0.00 0.69 0.69 99 1009.4
20260506130151 25 68 3.2 3.2 0.00 0.69 0.69 99 1009.4
20260506125649 25 4 3.2 4.8 0.05 0.69 0.69 99 1009.5
20260506125147 25 85 1.6 4.8 0.05 0.69 0.69 99 1009.4
20260506124645 25 63 3.2 4.8 0.13 0.66 0.66 99 1009.1
20260506124142 25 65 1.6 3.2 0.23 0.66 0.66 99 1008.8
20260506123639 25 103 0.0 1.6 0.18 0.66 0.66 99 1009.1
20260506123138 25 104 0.0 1.6 0.23 0.64 0.64 99 1008.9
20260506122634 25 83 0.0 3.2 0.36 0.61 0.61 99 1008.8
20260506122132 25 102 1.6 1.6 0.43 0.58 0.58 99 1008.9
20260506121629 25 100 0.0 0.0 0.30 0.53 0.53 99 1009.0
20260506121126 26 109 0.0 1.6 0.23 0.51 0.51 99 1008.9
20260506120624 25 87 1.6 1.6 0.30 0.48 0.48 99 1008.9
20260506120121 26 101 0.0 1.6 0.48 0.46 0.46 99 1008.6
20260506115619 26 353 4.8 4.8 0.66 0.43 0.43 99 1008.5
20260506115117 26 162 3.2 8.0 0.61 0.36 0.36 99 1008.4
20260506114614 26 91 1.6 8.0 0.71 0.30 0.30 99 1008.4
20260506114112 26 342 8.0 12.9 0.48 0.25 0.25 98 1008.4
20260506113610 27 6 4.8 9.7 0.00 0.18 0.18 95 1008.7
20260506113107 27 26 4.8 8.0 0.00 0.18 0.18 94 1008.5
20260506112603 27 347 8.0 14.5 0.00 0.18 0.18 94 1008.2
20260506112101 27 316 8.0 9.7 0.00 0.18 0.18 93 1007.9
20260506111559 27 354 11.3 12.9 0.00 0.18 0.18 93 1007.8
20260506111056 28 321 4.8 12.9 0.00 0.18 0.18 92 1008.0
20260506110553 30 339 6.4 9.7 0.00 0.18 0.18 88 1008.0
20260506110050 30 92 1.6 1.6 0.00 0.18 0.18 87 1008.1
20260506105546 30 116 0.0 1.6 0.00 0.18 0.18 87 1007.7
20260506105044 29 107 0.0 0.0 0.00 0.18 0.18 89 1007.6
20260506104542 29 110 0.0 1.6 0.00 0.18 0.18 89 1007.6
20260506104039 29 115 0.0 1.6 0.00 0.18 0.18 89 1007.3
20260506103536 30 113 0.0 1.6 0.00 0.18 0.18 88 1006.9
20260506103033 30 112 1.6 1.6 0.00 0.18 0.18 87 1007.0
20260506102532 30 108 0.0 3.2 0.00 0.18 0.18 87 1007.3
20260506102029 30 118 1.6 3.2 0.00 0.18 0.18 86 1007.3
20260506101525 30 136 3.2 3.2 0.00 0.18 0.18 86 1007.3
20260506101022 30 127 3.2 4.8 0.00 0.18 0.18 87 1007.2
20260506100520 30 113 1.6 1.6 0.00 0.18 0.18 86 1007.2
20260506100019 30 133 3.2 4.8 0.00 0.18 0.18 85 1007.2
20260506095517 30 132 3.2 4.8 0.00 0.18 0.18 85 1006.7
20260506095012 30 173 6.4 9.7 0.00 0.18 0.18 85 1006.7
20260506094511 30 156 8.0 11.3 0.00 0.18 0.18 85 1006.8
20260506094008 30 129 4.8 9.7 0.00 0.18 0.18 86 1006.7
20260506093507 30 156 6.4 12.9 0.00 0.18 0.18 85 1006.6
20260506093004 30 165 6.4 9.7 0.00 0.18 0.18 86 1006.6
20260506092502 30 143 8.0 12.9 0.00 0.18 0.18 86 1006.7
20260506091958 30 155 8.0 11.3 0.00 0.18 0.18 85 1006.8
20260506091456 30 124 8.0 11.3 0.00 0.18 0.18 87 1006.5
20260506090953 30 124 3.2 8.0 0.00 0.18 0.18 88 1006.5
20260506090451 30 177 3.2 3.2 0.00 0.18 0.18 89 1006.7
20260506085947 29 204 1.6 3.2 0.00 0.18 0.18 90 1006.6
20260506085444 28 134 3.2 4.8 0.00 0.18 0.18 90 1006.9
20260506084940 28 129 3.2 3.2 0.00 0.18 0.18 90 1006.9
20260506084437 29 123 4.8 9.7 0.00 0.18 0.18 91 1007.0
20260506083933 30 138 4.8 8.0 0.00 0.18 0.18 90 1006.8
20260506083431 30 130 1.6 3.2 0.00 0.18 0.18 91 1006.6
20260506082928 30 156 3.2 4.8 0.00 0.18 0.18 90 1006.7
20260506082425 30 119 1.6 3.2 0.00 0.18 0.18 90 1006.6
20260506081920 30 104 0.0 1.6 0.00 0.18 0.18 91 1006.3
20260506081419 30 115 1.6 3.2 0.00 0.18 0.18 90 1006.6
20260506080916 30 175 3.2 4.8 0.00 0.18 0.18 89 1006.8
20260506080412 30 123 1.6 8.0 0.00 0.18 0.18 89 1006.6
20260506073357 31 112 0.0 1.6 0.00 0.18 0.18 85 1006.7
20260506072853 31 150 4.8 4.8 0.00 0.18 0.18 86 1006.7
20260506072351 32 105 1.6 3.2 0.00 0.18 0.18 84 1007.0
20260506071848 32 132 1.6 3.2 0.00 0.18 0.18 82 1007.2
20260506071347 32 131 4.8 8.0 0.00 0.18 0.18 83 1007.0
20260506070843 32 120 4.8 8.0 0.00 0.18 0.18 83 1007.3
20260506070340 32 129 3.2 4.8 0.00 0.18 0.18 85 1006.9
20260506062317 30 40 3.2 9.7 0.00 0.18 0.18 93 1007.8
20260506061813 30 77 4.8 4.8 0.00 0.18 0.18 95 1008.0
20260506061310 29 19 3.2 4.8 0.05 0.18 0.18 98 1008.2
20260506060809 28 101 3.2 4.8 0.13 0.18 0.18 99 1008.4
20260506060307 28 341 4.8 4.8 0.23 0.15 0.15 99 1008.7
20260506051238 31 92 3.2 9.7 0.00 0.10 0.10 89 1009.4
20260506050736 30 64 1.6 1.6 0.00 0.10 0.10 91 1009.5
20260506050233 30 98 0.0 3.2 0.00 0.10 0.10 93 1009.6
20260506044724 30 79 1.6 1.6 0.05 0.10 0.10 92 1009.6
20260506044221 30 96 0.0 1.6 0.05 0.10 0.10 94 1009.8
20260506043718 30 104 0.0 0.0 0.00 0.08 0.08 94 1009.9
20260506043216 30 86 0.0 1.6 0.00 0.08 0.08 93 1009.9
20260506042714 30 60 1.6 1.6 0.00 0.08 0.08 94 1010.2
20260506042212 29 102 0.0 1.6 0.00 0.08 0.08 96 1010.2
20260506041710 28 33 1.6 3.2 0.00 0.08 0.08 97 1010.1
20260506041207 28 276 1.6 3.2 0.00 0.08 0.08 98 1010.2
20260506040705 28 49 1.6 1.6 0.13 0.08 0.08 98 1010.4
20260506040201 28 101 0.0 0.0 0.23 0.08 0.08 98 1010.2
20260506035658 29 113 1.6 1.6 0.36 0.05 0.05 96 1010.2
20260506035155 30 105 1.6 1.6 0.23 0.05 0.05 92 1010.4
20260506034652 30 103 0.0 1.6 0.00 0.00 0.00 89 1010.4
20260506034149 30 93 1.6 1.6 0.00 0.00 0.00 90 1010.4
20260506033646 30 108 0.0 1.6 0.00 0.00 0.00 91 1010.4
20260506033143 30 124 1.6 3.2 0.00 0.00 0.00 91 1010.5
20260506032640 30 131 1.6 3.2 0.00 0.00 0.00 90 1010.5
20260506032137 30 104 0.0 1.6 0.00 0.00 0.00 89 1010.6
20260506031634 30 106 0.0 3.2 0.00 0.00 0.00 89 1010.7
20260506031131 30 96 0.0 3.2 0.00 0.00 0.00 88 1010.7
20260506030630 30 112 1.6 3.2 0.00 0.00 0.00 89 1010.5
20260506030126 30 108 1.6 4.8 0.00 0.00 0.00 89 1010.7
20260506025623 30 120 4.8 4.8 0.00 0.00 0.00 88 1010.8
20260506025119 30 107 3.2 4.8 0.00 0.00 0.00 88 1011.0
20260506024617 30 99 3.2 4.8 0.00 0.00 0.00 87 1010.7
20260506024113 31 117 1.6 3.2 0.00 0.00 0.00 86 1011.1
20260506023609 30 127 1.6 1.6 0.00 0.00 0.00 88 1010.7
20260506023107 30 143 3.2 4.8 0.00 0.00 0.00 87 1010.8
20260506022604 30 137 0.0 1.6 0.00 0.00 0.00 88 1011.0
20260506022101 30 343 3.2 3.2 0.00 0.00 0.00 86 1010.8
20260506021559 31 275 3.2 3.2 0.00 0.00 0.00 85 1010.8
20260506021056 31 182 0.0 3.2 0.00 0.00 0.00 85 1010.9
20260506020553 31 85 1.6 4.8 0.00 0.00 0.00 85 1010.8
20260506020050 30 85 0.0 3.2 0.00 0.00 0.00 88 1010.8
20260506015548 29 93 0.0 0.0 0.00 0.00 0.00 91 1010.9
20260506015045 29 142 3.2 4.8 0.00 0.00 0.00 94 1011.0
20260506014542 29 151 1.6 3.2 0.00 0.00 0.00 92 1011.0
20260506014038 29 91 0.0 1.6 0.00 0.00 0.00 92 1010.9
20260506013536 28 111 0.0 0.0 0.00 0.00 0.00 94 1010.7
20260506013032 28 100 0.0 0.0 0.00 0.00 0.00 94 1010.8
20260506012529 28 106 0.0 0.0 0.00 0.00 0.00 94 1010.8
20260506012026 28 100 1.6 1.6 0.00 0.00 0.00 94 1010.8
20260506011523 28 81 0.0 0.0 0.00 0.00 0.00 94 1010.6
20260506011019 28 95 0.0 1.6 0.00 0.00 0.00 94 1010.6
20260506010519 28 81 0.0 1.6 0.00 0.00 0.00 95 1010.7
20260506010015 28 104 0.0 1.6 0.00 0.00 0.00 96 1010.5
20260506005512 28 89 0.0 1.6 0.00 0.00 0.00 96 1010.4
20260506005008 28 113 0.0 1.6 0.00 0.00 0.00 97 1010.4
20260506004506 28 116 1.6 1.6 0.00 0.00 0.00 96 1010.5
20260506004002 28 100 0.0 1.6 0.00 0.00 0.00 96 1010.2
20260506003458 28 112 1.6 1.6 0.00 0.00 0.00 97 1010.2
20260506002954 28 105 0.0 1.6 0.00 0.00 0.00 97 1010.3
20260506002451 27 94 0.0 0.0 0.00 0.00 0.00 96 1010.0
20260506001946 27 101 0.0 0.0 0.00 0.00 0.00 97 1010.1
20260506001443 27 104 0.0 1.6 0.00 0.00 0.00 98 1010.2
20260506000941 27 104 0.0 0.0 0.00 0.00 0.00 98 1010.1
20260506000438 27 110 0.0 1.6 0.00 0.00 0.00 98 1009.9
20260505235935 27 106 0.0 0.0 0.00 0.00 0.00 98 1009.8
20260505235433 27 93 0.0 1.6 0.00 0.00 0.00 99 1009.7
20260505234929 27 105 1.6 1.6 0.00 0.00 0.00 99 1009.5
20260505234427 27 48 1.6 1.6 0.00 0.00 0.00 99 1009.6
20260505233923 26 96 0.0 0.0 0.00 0.00 0.00 99 1009.6
20260505233421 26 96 0.0 0.0 0.00 0.00 0.00 99 1009.5
20260505232919 26 100 0.0 0.0 0.00 0.00 0.00 99 1009.4
20260505232416 26 98 0.0 0.0 0.00 0.00 0.00 99 1009.3
20260505231913 26 96 0.0 1.6 0.00 0.00 0.00 99 1009.2
20260505231411 26 98 0.0 0.0 0.00 0.00 0.00 99 1009.4
20260505230908 26 94 0.0 0.0 0.00 0.00 0.00 99 1009.3
20260505230406 26 99 0.0 0.0 0.00 0.00 0.00 99 1009.4
20260505225902 26 90 0.0 0.0 0.00 0.00 0.00 99 1009.2
20260505225359 26 104 0.0 0.0 0.00 0.00 0.00 99 1009.3
20260505224854 26 103 0.0 0.0 0.00 0.00 0.00 99 1009.1
20260505224352 26 107 0.0 0.0 0.00 0.00 0.00 99 1009.0
20260505223849 26 93 0.0 0.0 0.00 0.00 0.00 99 1009.0
20260505223346 26 78 0.0 1.6 0.00 0.00 0.00 99 1009.0
20260505222842 26 90 0.0 0.0 0.00 0.00 0.00 99 1008.8
20260505222338 26 82 0.0 1.6 0.00 0.00 0.00 99 1008.8
20260505221836 26 91 0.0 1.6 0.00 0.00 0.00 99 1009.0
20260505221332 26 98 0.0 0.0 0.00 0.00 0.00 99 1008.7
20260505220829 26 100 0.0 0.0 0.00 0.00 0.00 99 1008.7
20260505220326 26 98 0.0 1.6 0.00 0.00 0.00 99 1008.5
20260505215824 26 39 1.6 3.2 0.00 0.00 0.00 99 1008.6
20260505215322 26 102 0.0 0.0 0.00 0.00 0.00 99 1008.6
20260505214820 26 110 0.0 0.0 0.00 0.00 0.00 99 1008.6
20260505214317 26 131 1.6 3.2 0.00 0.00 0.00 99 1008.9
20260505213813 26 104 1.6 1.6 0.00 0.00 0.00 99 1008.6
20260505213312 26 104 0.0 0.0 0.00 0.00 0.00 99 1008.6
20260505212807 26 113 0.0 0.0 0.00 0.00 0.00 99 1008.4
20260505212306 26 90 0.0 0.0 0.00 0.00 0.00 99 1008.7
20260505211801 26 108 0.0 0.0 0.00 0.00 0.00 99 1008.5
20260505211259 26 111 0.0 1.6 0.00 0.00 0.00 99 1008.7
20260505210754 26 114 1.6 1.6 0.00 0.00 0.00 99 1008.6
20260505210252 26 117 1.6 1.6 0.00 0.00 0.00 99 1008.7
20260505205749 26 101 0.0 0.0 0.00 0.00 0.00 99 1008.3
20260505205247 26 107 0.0 0.0 0.00 0.00 0.00 99 1008.2
20260505204743 26 106 0.0 0.0 0.00 0.00 0.00 99 1008.3
20260505204242 26 109 0.0 0.0 0.00 0.00 0.00 99 1008.3
20260505203738 26 101 0.0 0.0 0.00 0.00 0.00 99 1008.4
20260505203235 26 100 0.0 0.0 0.00 0.00 0.00 99 1008.3
20260505202731 27 106 0.0 0.0 0.00 0.00 0.00 99 1008.4
20260505202227 27 104 0.0 0.0 0.00 0.00 0.00 99 1008.5
20260505201724 26 140 1.6 3.2 0.00 0.00 0.00 99 1008.5
20260505201222 26 97 0.0 1.6 0.00 0.00 0.00 99 1008.8
20260505200720 26 104 0.0 1.6 0.00 0.00 0.00 99 1008.5